Theta_e
286 285 285 284 284 284 284 283 284 284 284 284 284 284 284 284 285 285 284 284 284 284 284 283 282 281 280 279 279 279 279 279 278 279 274 274 275 275 278 278 280 280 281
286 285 285 284 284 283 283 283 283 283 283 283 283 283 283 283 283 284 284 284 284 283 283 282 280 279 278 278 278 277 278 277 277 273 273 276 274 272 273 275 278 279 280
285 285 284 283 283 283 282 282 283 282 282 282 283 282 282 283 283 283 283 283 282 282 282 281 279 278 278 278 278 277 277 277 275 276 275 273 273 272 275 277 278 278 280
285 284 283 283 283 282 282 282 282 282 281 281 282 282 282 282 282 283 282 282 282 281 282 280 278 278 278 278 277 277 276 277 275 275 275 274 272 274 274 275 278 279 277
284 284 283 283 283 282 282 282 282 281 281 281 281 281 281 282 282 282 283 282 281 281 281 280 280 280 282 281 278 278 277 275 275 276 276 276 275 274 273 274 276 277 277
284 284 283 283 282 282 282 282 281 281 281 281 281 281 280 281 284 285 283 282 281 281 280 280 280 280 281 283 282 282 281 278 275 275 274 274 273 272 274 274 275 276 275
284 284 283 283 282 282 282 281 281 280 280 280 280 280 280 281 284 286 286 282 281 281 280 280 280 280 280 280 281 280 278 280 278 276 275 275 274 275 274 274 274 275 275
284 284 283 282 282 281 281 281 281 280 280 279 279 280 280 280 284 286 287 282 281 280 280 280 280 279 279 278 278 275 275 275 277 277 276 276 276 278 277 275 274 274 275
284 284 283 283 282 281 280 280 280 280 279 280 280 280 279 280 284 285 286 283 280 279 280 280 280 279 280 281 277 275 274 275 277 282 281 280 279 279 279 275 275 275 277
284 284 284 283 283 282 281 280 280 280 280 280 280 280 280 280 283 285 285 283 281 280 279 279 280 279 281 282 279 277 274 275 275 275 276 276 275 274 276 273 273 273 274
285 284 283 283 283 282 281 280 280 280 280 280 280 280 280 281 281 285 286 283 282 280 279 279 279 282 283 283 283 278 277 276 276 276 275 274 274 274 274 274 273 273 273
285 284 283 282 282 282 281 280 280 280 279 279 279 279 280 281 281 284 286 286 285 281 280 280 279 282 283 284 284 283 283 283 277 276 274 275 274 274 274 273 273 272 272
282 281 280 280 281 281 280 279 279 279 279 278 278 279 279 280 281 284 285 286 287 284 282 282 282 283 284 284 285 285 282 280 277 275 275 274 273 273 271 271 270 269 269
280 278 278 279 278 278 280 280 279 279 278 278 278 278 279 279 279 280 281 282 284 285 285 284 284 283 283 282 279 282 282 280 278 277 277 275 271 270 271 271 271 271 271
279 278 278 278 279 278 278 279 279 279 280 279 279 279 277 277 279 282 281 280 281 282 280 278 279 279 279 279 279 280 279 277 276 277 274 273 271 271 271 269 269 269 271
279 278 278 278 277 277 277 277 281 283 283 284 284 281 280 282 284 285 285 285 285 285 280 278 280 280 279 279 280 280 279 277 277 277 275 274 273 272 272 269 268 268 270
280 278 277 277 277 276 276 277 278 278 281 284 285 286 286 286 286 286 286 286 286 286 283 282 280 280 280 279 280 280 280 278 279 277 276 275 274 274 272 272 270 269 268
277 276 277 277 277 276 275 274 273 276 277 277 281 284 285 286 286 286 286 286 284 285 284 283 282 282 281 281 281 281 281 280 277 277 276 275 274 274 272 271 271 270 270
276 274 274 273 272 271 270 274 278 279 280 280 281 283 283 285 286 286 286 284 283 283 284 283 284 284 283 282 282 282 281 281 278 278 275 274 273 273 272 273 272 270 270
269 270 270 270 268 269 274 277 277 278 279 279 280 281 283 283 282 281 277 278 282 283 284 284 284 284 284 284 284 283 282 281 280 278 278 276 275 274 273 273 272 272 270
268 267 267 269 271 272 276 276 277 273 276 275 278 281 283 282 282 281 281 281 278 280 283 284 285 285 285 285 285 284 283 282 280 279 278 277 276 274 274 274 274 273 272
266 265 264 271 271 268 274 274 274 270 277 276 273 274 282 281 281 280 282 283 283 280 282 283 284 284 285 285 284 284 284 282 281 279 278 278 277 276 275 274 273 273 272
263 264 264 267 270 266 269 270 266 266 268 268 267 269 269 272 275 280 280 281 282 281 282 283 284 284 284 284 285 285 284 284 282 282 280 279 278 277 275 274 273 272 272
264 264 269 266 263 265 268 270 270 266 268 266 263 267 267 268 270 271 272 275 277 278 279 284 284 283 284 284 285 285 285 285 285 284 281 280 279 278 277 275 274 273 273
261 269 267 267 268 269 268 265 266 263 262 262 264 262 263 263 266 268 270 271 271 272 275 278 283 284 283 284 285 284 284 284 285 285 285 281 280 279 277 276 275 274 274
267 269 270 270 269 269 269 270 268 262 263 264 266 264 264 265 267 268 268 268 269 270 271 272 273 274 276 281 283 281 283 284 284 284 284 284 282 279 279 278 276 275 274
Wind_Speed
8 7 7 7 7 7 7 7 8 7 7 6 6 5 5 5 4 4 4 3 4 4 3 3 4 4 3 4 3 3 3 3 2 1 2 3 4 7 8 8 10 11 10
7 7 7 7 7 7 6 7 7 7 6 6 6 5 5 4 4 4 4 3 3 3 3 3 3 2 4 4 3 4 3 3 2 3 2 3 3 4 5 4 6 8 10
8 8 8 8 8 7 7 7 6 7 6 5 6 6 5 4 4 4 4 3 3 2 2 2 2 2 3 3 4 4 3 3 3 2 3 1 3 3 5 3 4 6 7
9 9 9 9 8 7 7 7 7 6 6 5 5 5 5 5 4 4 3 3 3 3 3 2 2 3 2 3 4 4 3 3 2 2 2 2 1 3 2 4 5 4 8
10 9 9 7 7 7 7 7 6 6 6 6 6 5 4 5 4 5 4 3 3 3 2 2 2 2 0 1 1 3 3 2 2 3 2 2 3 4 4 4 4 4 2
10 9 8 8 8 8 7 7 7 6 6 5 5 5 6 4 8 9 6 5 4 4 4 3 3 2 1 2 3 5 5 2 1 1 1 2 2 2 4 4 4 4 4
10 8 9 8 8 7 7 7 7 7 5 6 5 5 5 4 9 10 10 4 4 5 4 4 4 3 3 2 1 1 3 3 3 3 0 1 3 1 4 7 4 3 1
9 9 8 8 8 7 7 7 6 5 7 5 6 6 5 4 10 10 10 5 5 5 5 5 4 4 5 5 3 3 3 2 2 2 3 2 4 6 2 4 6 6 4
9 9 9 10 9 9 9 8 4 5 5 5 4 6 6 5 11 11 8 5 5 6 5 6 6 5 7 9 5 4 4 4 4 7 7 6 5 8 7 3 3 4 1
9 9 9 9 9 10 8 8 4 3 4 4 4 5 6 5 10 11 9 4 5 4 4 6 10 7 10 11 7 6 6 4 3 4 3 5 3 3 6 2 2 2 3
8 8 8 8 8 7 7 4 5 5 4 4 4 4 5 6 7 13 14 6 6 5 5 5 5 13 14 14 14 7 8 3 4 3 4 3 4 3 2 2 0 2 1
8 8 7 6 5 5 6 5 4 5 5 5 5 4 4 6 10 12 14 15 12 7 7 6 5 13 15 16 12 14 15 11 3 3 3 5 4 3 2 3 3 2 3
7 7 6 6 5 6 7 6 4 4 4 4 4 4 4 3 4 13 14 16 17 10 7 9 11 13 14 13 17 17 11 5 5 4 6 6 3 2 2 2 3 3 5
8 6 5 6 5 4 3 4 4 4 4 4 4 4 3 3 4 4 4 5 11 10 10 8 10 11 10 8 4 9 5 6 6 7 7 4 1 2 2 2 2 0 2
7 6 5 3 4 4 2 3 4 3 4 4 4 3 3 3 4 7 6 4 4 7 3 1 3 4 5 5 4 5 4 3 6 7 4 4 4 3 3 2 2 1 3
7 4 3 4 3 3 3 2 6 9 10 12 11 7 3 9 8 9 9 9 11 11 3 3 6 6 7 6 7 7 6 8 7 7 6 6 7 6 6 3 3 4 4
7 5 3 3 3 3 2 2 3 2 4 7 10 12 13 11 11 13 12 12 12 11 7 7 6 7 7 6 7 7 8 7 7 8 9 8 7 7 6 6 6 5 5
5 5 4 3 3 3 3 3 2 1 1 2 5 5 5 8 9 10 10 9 6 8 7 7 8 7 7 8 8 8 8 7 7 8 8 7 7 7 7 8 7 8 7
4 3 3 3 3 3 3 3 2 2 3 3 2 4 5 8 10 10 11 5 5 6 6 7 7 7 7 8 8 8 9 8 8 7 7 7 7 7 8 8 8 10 8
3 5 4 3 3 3 3 3 3 3 3 3 3 4 3 5 5 4 3 3 5 6 6 7 7 8 8 8 8 8 8 8 8 8 8 7 7 7 8 8 8 8 8
3 3 4 3 3 3 3 3 4 3 3 3 3 3 9 5 4 4 4 5 5 6 7 7 6 6 6 7 7 7 8 8 8 8 7 7 7 7 8 8 7 8 8
3 3 3 3 3 3 3 3 4 3 3 3 3 4 11 4 3 4 5 6 6 5 6 6 6 6 6 6 6 7 7 8 7 7 8 7 7 7 7 7 7 7 8
3 4 3 2 3 3 2 3 2 2 3 3 3 3 3 3 4 4 3 4 4 4 5 5 6 6 5 6 6 7 7 6 7 7 7 7 7 7 7 7 7 7 7
4 4 3 3 2 3 3 4 4 4 5 4 3 4 4 4 4 4 4 4 4 4 4 6 6 8 7 5 5 6 7 7 5 6 10 8 7 8 7 7 7 9 8
3 3 3 4 4 4 4 4 4 4 4 4 4 3 3 3 4 4 4 4 4 3 5 5 4 7 9 10 8 9 9 10 9 9 6 8 10 10 8 7 8 8 9
4 5 5 4 4 5 5 6 5 4 5 4 4 4 4 4 5 5 5 4 4 4 5 4 5 8 8 7 9 9 9 9 8 10 7 7 7 7 8 9 11 8 9
Wind_Direction
160 156 152 156 155 154 163 166 164 155 158 157 152 146 142 141 133 121 111 120 111 106 93 75 59 41 49 45 29 21 25 349 3 300 278 321 307 342 344 348 1 13 13
154 150 155 149 153 159 164 168 163 160 162 158 153 149 152 159 150 151 154 148 150 130 100 84 53 35 56 50 43 25 23 31 5 333 328 324 311 325 306 338 350 357 9
151 149 150 157 160 167 167 163 165 159 163 160 156 159 161 168 168 172 175 163 146 136 128 113 90 43 49 48 57 27 13 22 23 344 319 331 299 348 322 329 333 343 359
156 158 165 169 172 166 158 163 165 164 156 161 171 171 174 179 180 175 161 167 156 143 135 125 110 91 75 47 57 37 8 11 22 342 343 340 319 319 317 333 359 7 353
161 165 174 164 157 153 158 163 158 165 174 171 167 175 175 183 185 183 181 175 166 145 145 152 131 115 205 80 114 62 29 36 14 359 15 333 12 340 2 322 314 343 345
165 171 157 157 159 168 162 163 166 170 165 169 182 178 184 201 196 195 182 186 187 182 191 192 183 173 307 107 116 82 62 31 74 34 357 357 346 311 315 327 328 4 355
166 160 162 164 168 168 159 158 171 175 164 179 188 190 201 206 211 205 196 193 196 202 208 206 206 205 202 190 195 93 79 27 96 147 32 316 308 337 327 317 329 327 15
164 164 163 160 159 161 163 175 172 170 181 178 190 200 204 211 220 215 198 191 210 221 219 219 222 220 218 201 201 257 263 255 236 186 196 225 254 287 325 289 302 299 281
168 169 167 166 165 166 178 180 172 172 179 189 181 192 204 214 218 219 210 190 214 229 230 226 219 225 227 221 217 231 271 261 238 228 234 244 288 317 335 343 10 312 297
170 173 167 167 172 179 175 177 160 165 183 177 194 199 207 219 221 223 220 187 223 229 226 232 225 220 230 229 218 230 251 250 246 238 236 272 277 305 320 27 37 342 314
148 148 161 170 175 173 162 154 164 173 166 185 197 199 213 208 221 226 224 196 218 223 231 225 219 231 230 232 226 204 228 213 232 244 264 248 267 251 243 264 145 151 287
151 153 156 159 157 152 152 149 154 165 181 195 201 219 219 214 220 231 230 228 211 215 231 224 219 229 234 233 231 229 232 239 212 216 251 270 255 264 226 210 222 229 226
130 135 139 141 150 155 155 162 158 173 188 199 210 222 235 208 233 241 235 235 236 221 225 232 228 237 240 243 240 236 228 215 205 216 231 240 217 213 273 250 223 234 244
125 133 137 146 148 135 123 148 156 178 194 205 209 225 234 222 227 232 234 244 249 244 241 236 228 233 223 227 235 250 226 209 214 231 242 244 188 233 226 195 239 203 267
126 134 138 133 144 145 157 172 189 203 179 192 219 208 208 243 248 238 227 222 230 238 252 222 210 230 240 231 232 230 225 221 224 233 225 237 240 219 235 188 207 210 238
120 120 130 134 141 147 163 207 241 233 223 231 231 212 223 237 254 264 259 256 250 248 218 234 247 235 235 231 236 237 213 211 230 239 234 230 237 235 239 198 213 218 239
118 128 128 134 151 153 161 190 196 339 326 273 261 257 256 262 261 265 261 253 257 251 233 233 232 233 236 234 239 234 235 216 212 223 235 230 227 235 226 235 226 221 238
111 116 133 147 152 154 164 162 143 122 304 311 310 286 272 254 268 273 271 279 254 246 243 243 244 235 222 226 227 228 231 223 211 223 226 228 223 228 228 233 228 233 231
129 140 142 137 139 135 134 147 185 225 255 274 281 291 280 273 278 275 273 246 247 248 241 239 242 244 237 227 232 229 228 231 220 219 221 221 219 217 234 237 233 228 225
133 135 142 137 132 129 155 180 203 223 242 256 268 282 280 296 287 281 274 267 264 263 257 250 238 237 238 235 231 229 232 227 226 223 231 221 221 218 233 233 226 233 224
149 151 148 136 165 179 185 206 224 228 232 239 238 247 280 277 263 247 251 249 255 259 266 268 265 256 245 242 243 239 229 232 226 225 221 229 220 220 226 235 237 230 237
153 157 166 185 176 192 209 221 234 220 241 255 273 290 294 297 257 250 258 250 242 243 254 264 268 265 265 262 253 248 239 234 232 227 229 229 225 223 226 223 227 231 235
149 155 158 185 205 219 237 251 253 249 263 268 273 283 291 282 271 272 266 269 260 248 253 258 264 267 264 261 263 269 269 244 235 228 231 230 227 224 218 227 226 228 226
158 168 195 207 180 211 227 242 241 240 246 252 264 267 264 267 272 275 277 286 289 278 273 303 294 294 301 288 279 274 272 266 251 237 225 237 232 228 222 220 223 225 230
148 187 204 213 220 224 237 245 249 247 246 249 263 252 261 266 282 280 280 282 286 299 291 293 284 295 291 286 284 274 267 267 270 265 251 227 238 232 226 227 226 228 227
190 207 219 214 225 228 231 240 239 235 241 241 237 236 244 260 262 264 268 275 281 279 283 276 281 289 288 288 304 299 290 284 278 276 270 266 247 235 236 232 229 230 230